RH
70 60 50 54 67 71 70 69 73 72 76 75 78 84 85 83 85 82 80 83 72 79 76 74 75 68 72 66 71 64 71 68
67 49 52 63 68 69 70 73 71 73 77 78 83 86 87 87 86 81 79 76 70 74 75 71 75 72 75 68 75 71 69 65
49 52 53 60 66 70 74 67 68 69 74 76 81 82 88 86 84 79 73 66 68 62 71 74 69 72 73 71 75 79 74 73
53 51 55 62 66 71 68 69 70 71 73 74 83 85 88 88 84 80 69 62 68 69 70 74 72 73 77 76 79 79 76 71
51 52 58 60 64 64 64 63 66 65 67 73 78 85 84 87 84 75 66 61 63 70 70 70 73 76 77 75 74 81 77 78
52 53 52 58 59 62 65 63 63 65 69 72 82 85 81 82 80 73 67 63 63 63 71 68 72 77 74 75 79 75 80 78
48 49 49 53 59 66 70 64 64 63 69 72 78 78 81 83 84 84 72 70 67 66 61 72 70 72 72 74 75 71 75 77
46 50 49 53 59 68 68 64 65 68 69 75 76 77 79 77 75 74 69 71 70 64 64 66 68 67 69 70 71 73 75 76
44 48 48 53 59 69 64 66 66 69 72 78 80 76 80 70 68 64 66 70 67 62 62 62 60 62 63 65 75 73 74 76
42 46 48 55 63 66 67 67 65 71 78 79 77 77 71 66 61 57 62 65 56 60 57 58 58 61 59 61 75 66 69 74
43 46 51 52 58 61 66 70 67 74 77 77 73 72 67 65 62 62 61 58 56 57 54 53 54 57 58 62 69 66 66 73
45 47 50 50 57 60 64 74 75 77 74 76 76 74 66 61 61 62 63 58 52 51 51 49 52 55 56 61 59 63 63 66
44 50 49 54 57 62 65 76 72 77 74 79 76 74 66 63 59 61 62 58 51 49 47 48 50 56 55 56 57 62 65 68
46 50 51 61 59 66 66 77 76 75 75 76 77 74 67 58 61 62 58 56 54 48 49 52 54 57 54 55 62 66 66 66
44 48 57 62 61 66 68 81 77 75 76 75 78 72 60 58 62 62 61 54 53 52 54 55 59 56 52 55 58 61 64 64
46 53 58 62 66 71 71 78 76 74 73 76 77 71 60 59 65 62 60 57 50 54 55 55 57 54 47 62 59 61 61 66
40 50 55 60 66 71 73 77 76 70 70 73 70 64 57 60 66 63 62 58 55 56 55 57 60 44 70 66 63 62 59 63
35 53 54 57 63 67 76 75 72 68 69 68 65 58 54 65 62 62 62 64 63 63 64 59 61 67 75 69 65 61 64 67
49 48 58 57 65 70 75 71 71 70 68 62 59 58 56 60 60 63 65 66 64 67 66 63 64 58 78 71 68 64 66 64
Wind_Speed
10 13 14 11 8 8 8 7 8 8 6 5 5 5 5 5 5 6 8 6 8 6 5 7 5 6 6 6 6 5 4 5
7 13 13 9 9 9 8 8 7 5 3 4 4 4 4 4 5 7 7 7 7 7 5 6 5 5 5 6 4 5 5 8
15 14 12 8 9 8 9 8 8 6 3 3 4 5 3 4 5 6 7 7 7 6 6 5 6 5 6 6 5 4 4 6
14 14 12 9 9 9 9 9 8 5 8 7 5 5 4 4 3 4 4 7 6 6 6 6 5 5 4 4 4 6 4 4
13 13 11 10 9 9 9 9 8 8 9 6 8 5 6 4 4 4 5 7 6 6 6 6 5 3 5 3 4 4 4 4
14 14 13 9 9 8 8 8 8 8 7 8 5 6 5 5 6 8 6 5 7 6 6 6 5 4 4 5 5 6 4 3
15 15 14 12 9 8 8 9 7 8 7 8 9 10 8 6 4 6 4 3 4 6 6 5 4 4 4 4 4 6 5 4
17 17 16 14 13 9 8 8 8 8 7 7 8 9 9 8 7 6 7 4 3 4 4 4 3 3 4 5 3 5 4 3
18 18 16 15 14 12 9 8 8 8 8 8 7 8 5 5 6 5 5 5 5 4 4 4 4 4 3 4 1 3 4 3
18 17 16 16 14 13 11 9 9 9 8 8 7 7 8 8 8 6 5 5 5 5 4 3 3 4 3 4 2 3 4 2
16 17 15 16 16 14 13 9 11 10 10 8 7 8 8 7 7 7 7 6 5 6 4 3 3 4 3 3 2 3 4 2
16 15 15 18 16 16 15 10 11 11 11 8 9 7 8 7 7 7 7 6 6 5 5 3 4 4 3 3 2 3 3 3
16 15 17 16 17 16 15 10 13 12 11 9 9 8 8 7 6 7 7 7 6 6 4 3 3 4 3 2 1 3 4 4
14 13 17 15 17 16 15 11 12 12 10 11 9 8 7 8 8 8 7 7 7 5 5 4 4 3 2 2 5 5 5 5
16 14 14 15 16 16 15 11 12 12 11 11 10 9 8 7 7 7 7 7 7 6 5 5 4 4 4 4 5 5 4 5
13 14 13 15 15 14 14 12 13 12 13 11 10 8 8 8 7 7 7 7 6 6 6 5 5 4 3 6 5 3 2 4
8 11 15 14 14 14 14 13 13 13 13 12 11 10 9 9 7 7 7 7 6 6 6 6 5 3 11 10 7 3 0 3
4 10 14 14 14 15 15 15 14 14 13 11 12 12 11 8 8 7 8 8 6 7 7 7 7 6 13 12 9 3 1 4
7 2 9 11 10 11 13 15 14 14 12 12 12 13 11 9 9 8 7 6 7 6 7 7 6 5 14 12 9 3 3 4
Wind_Direction
155 139 125 127 121 109 108 109 105 103 96 99 87 85 82 78 76 61 45 42 43 42 41 38 40 47 28 14 13 4 16 337
153 129 128 120 121 123 131 121 140 130 128 125 105 113 102 81 76 70 58 45 44 43 40 44 45 52 44 27 354 10 357 350
136 129 130 133 141 145 142 155 165 172 153 151 129 134 117 121 101 83 75 59 48 57 51 44 50 45 34 28 30 6 4 14
144 142 145 146 149 154 163 173 188 162 137 117 94 78 87 87 87 95 96 89 77 69 58 59 58 53 42 28 34 48 35 353
152 151 152 158 168 167 175 183 153 150 140 136 147 148 155 161 154 136 115 111 92 86 76 67 69 56 45 15 38 57 67 34
159 160 161 165 167 182 175 168 155 156 162 165 153 149 138 145 143 129 130 118 110 95 94 80 65 55 40 36 44 51 47 62
162 162 161 166 173 175 168 165 165 171 169 173 155 148 146 139 137 135 137 116 96 94 83 87 76 65 47 31 61 72 57 52
167 164 169 167 175 172 170 164 164 172 155 139 143 131 134 139 133 131 139 133 106 99 95 85 80 70 43 43 63 84 68 65
172 169 171 169 174 170 169 170 163 164 161 149 132 127 125 111 121 119 121 130 134 125 106 111 108 99 58 41 41 104 80 54
174 170 172 166 167 170 172 179 170 168 157 141 140 134 129 131 125 123 121 131 132 130 129 129 123 106 88 45 61 75 81 53
173 174 172 169 170 172 176 178 174 167 153 144 139 127 131 133 122 131 134 133 127 141 141 148 138 120 100 70 44 31 73 17
174 176 175 172 172 173 180 170 165 161 154 144 137 141 137 135 135 144 151 143 148 147 153 171 159 133 110 87 37 97 54 8
178 172 175 175 174 174 179 172 163 162 158 141 142 136 135 138 147 152 157 155 158 155 157 176 150 126 118 136 130 52 45 15
183 173 180 170 171 173 176 164 161 156 144 141 137 143 151 163 163 158 161 155 165 165 162 170 151 147 179 223 101 70 30 352
184 181 174 169 169 169 170 160 154 149 140 145 151 160 167 173 169 163 164 165 159 168 179 174 175 195 213 126 110 70 15 343
186 175 171 168 168 163 165 155 152 146 144 152 164 166 167 172 172 169 166 164 169 182 174 184 202 198 193 141 124 119 31 323
198 186 168 166 163 162 157 152 152 148 158 165 165 170 178 180 173 173 165 171 178 180 188 196 210 197 155 155 153 154 43 302
157 171 172 170 170 162 161 156 153 160 161 163 169 179 185 176 175 173 179 182 184 200 203 198 213 177 169 167 160 157 236 276
356 226 170 176 162 153 145 154 157 162 166 173 173 181 182 178 181 185 186 180 191 195 201 205 208 193 176 175 172 182 239 274